User: anonymous   Login
Location: Unspecified
(0.0000°N, 0.0000°E)
Time: 13:43:02
(UTC+00:00)
Language:

NATO 4A - Orbit

View from above orbital plane
View from above orbital plane
View from above satellite
View from above satellite

Ground track
Ground track

The orbit data is extracted from the following two-line orbital elements,

1 21047U 91001A   18171.51241890 -.00000136 +00000-0 +00000-0 0  9994
2 21047 013.2120 014.0288 0001361 201.7373 350.3909 00.98283613099436
Epoch (UTC): 20 June 2018 12:17:52
Eccentricity: 0.0001361
inclination: 13.2120°
perigee height: 36347 km
apogee height: 36359 km
right ascension of ascending node: 14.0288°
argument of perigee: 201.7373°
revolutions per day: 0.98283613
mean anomaly at epoch: 350.3909°
orbit number at epoch: 9943

The dashed part of the orbit path shows where the satellite is in the earth's shadow,  

DLR